TimeCDT,TemperatureF,Dew PointF,Humidity,Sea Level PressureIn,VisibilityMPH,Wind Direction,Wind SpeedMPH,Gust SpeedMPH,PrecipitationIn,Events,Conditions,WindDirDegrees,DateUTC
12:54 AM,26.1,19.9,78,30.37,10.0,SW,3.5,-,N/A,,Clear,230,2013-03-27 05:54:00
1:54 AM,26.1,19.9,78,30.37,10.0,WSW,4.6,-,N/A,,Clear,240,2013-03-27 06:54:00
2:54 AM,25.0,19.9,81,30.35,10.0,SW,3.5,-,N/A,,Clear,230,2013-03-27 07:54:00
3:54 AM,24.1,19.0,81,30.35,10.0,Calm,Calm,-,N/A,,Clear,0,2013-03-27 08:54:00
4:54 AM,26.1,19.9,78,30.35,10.0,Calm,Calm,-,N/A,,Clear,0,2013-03-27 09:54:00
5:54 AM,24.1,19.0,81,30.36,10.0,Calm,Calm,-,N/A,,Clear,0,2013-03-27 10:54:00
6:54 AM,26.1,19.9,78,30.36,10.0,Calm,Calm,-,N/A,,Clear,0,2013-03-27 11:54:00
7:54 AM,26.1,21.0,81,30.38,10.0,Calm,Calm,-,N/A,,Clear,0,2013-03-27 12:54:00
8:54 AM,28.9,23.0,78,30.39,10.0,Calm,Calm,-,N/A,,Clear,0,2013-03-27 13:54:00
9:54 AM,36.0,21.9,57,30.40,10.0,Calm,Calm,-,N/A,,Clear,0,2013-03-27 14:54:00
10:54 AM,37.9,21.0,51,30.40,10.0,Calm,Calm,-,N/A,,Clear,0,2013-03-27 15:54:00
11:54 AM,37.0,21.0,52,30.40,10.0,Calm,Calm,-,N/A,,Clear,0,2013-03-27 16:54:00
12:54 PM,37.9,21.9,53,30.40,10.0,SW,4.6,-,N/A,,Clear,230,2013-03-27 17:54:00
1:54 PM,39.0,21.9,50,30.38,10.0,Calm,Calm,-,N/A,,Clear,0,2013-03-27 18:54:00
2:54 PM,39.9,23.0,51,30.35,10.0,Calm,Calm,-,N/A,,Clear,0,2013-03-27 19:54:00
3:54 PM,39.9,25.0,55,30.35,10.0,ESE,3.5,-,N/A,,Clear,120,2013-03-27 20:54:00
4:54 PM,41.0,23.0,49,30.32,10.0,ESE,4.6,-,N/A,,Clear,120,2013-03-27 21:54:00
5:54 PM,41.0,24.1,51,30.32,10.0,SE,5.8,-,N/A,,Clear,130,2013-03-27 22:54:00
6:54 PM,39.9,25.0,55,30.32,10.0,SE,4.6,-,N/A,,Clear,130,2013-03-27 23:54:00
7:54 PM,37.9,25.0,60,30.32,10.0,ESE,4.6,-,N/A,,Clear,120,2013-03-28 00:54:00
8:54 PM,37.0,24.1,59,30.33,10.0,ESE,3.5,-,N/A,,Mostly Cloudy,120,2013-03-28 01:54:00
9:54 PM,36.0,23.0,59,30.35,10.0,ESE,8.1,-,N/A,,Overcast,110,2013-03-28 02:54:00
10:54 PM,34.0,25.0,70,30.35,10.0,SE,4.6,-,N/A,,Overcast,130,2013-03-28 03:54:00
11:54 PM,32.0,24.1,73,30.35,10.0,ESE,4.6,-,N/A,,Mostly Cloudy,120,2013-03-28 04:54:00